Regional Weather Roundup
Issued by NWS

Home | Current Version | Previous Version | Text Only | Print | Product List | Glossary On
Versions: 1 2 3 4 5 6 7 8 9 10 11 12 13 14 15 16 17 18 19 20 21 22 23 24 25 26 27 28 29 30 31 32 33 34 35 36 37 38 39 40 41 42 43 44 45 46 47 48 49 50
000
ASUS43 KDMX 171807
RWRIA

WEATHER ROUNDUP FOR IOWA
NATIONAL WEATHER SERVICE DES MOINES IA
1200 PM CST WED DEC 17 2014

NOTE: "FAIR" INDICATES FEW OR NO CLOUDS BELOW 12,000 FEET WITH NO
SIGNIFICANT WEATHER AND/OR OBSTRUCTIONS TO VISIBILITY.

* - THESE STATIONS ARE NOT NWS STATIONS...THUS NOT UNDER NWS
QUALITY CONTROL.  THEY ALSO DO NOT REPORT WEATHER SUCH
AS PRECIPITATION OR FOG.

IAZ001>003-012>014-020>022-031>034-043>046-171900-
   NORTHWEST IOWA

CITY           SKY/WX    TMP DP  RH WIND       PRES   REMARKS
CARROLL *      SUNNY     21  14  73 VRB7      30.31F WCI  13
CHEROKEE *       N/A     20  15  79 CALM      30.31F
DENISON *      SUNNY     23  16  74 CALM      30.29F
LE MARS *      SUNNY     19  12  73 CALM      30.34F
ORANGE CITY *  SUNNY     19  12  73 W3        30.31F
SHELDON *      SUNNY     18  12  79 N3        30.30F
SIOUX CITY       N/A     22  12  65 CALM      30.35F
6HR MIN TEMP:   8; 6HR MAX TEMP:  22;

SPENCER          N/A     22  13  68 N7        30.30F WCI  13
6HR MIN TEMP:   7; 6HR MAX TEMP:  22;

STORM LAKE *   SUNNY     19  14  79 VRB3      30.30F
$$

IAZ055>058-069>071-079>083-090>094-171900-
   SOUTHWEST IOWA

CITY           SKY/WX    TMP DP  RH WIND       PRES   REMARKS
ATLANTIC *     SUNNY     23  16  74 NE5       30.31F WCI  17
AUDUBON *      SUNNY     25  12  58 N6        30.30F WCI  18
CLARINDA *     CLOUDY    25  18  74 N5        30.34F WCI  19
COUNCIL BLFS * PTSUNNY   25  16  68 CALM      30.31F
CRESTON *      SUNNY     25  16  68 N6        30.30F WCI  18
HARLAN  *      SUNNY     23  18  80 NE6       30.35F WCI  16
LAMONI           N/A     24  17  74 CALM      30.30F
6HR MIN TEMP:  16; 6HR MAX TEMP:  24;

RED OAK *        N/A     25  16  68 VRB3      30.33F
SHENANDOAH *   CLOUDY    25  18  74 CALM      30.33F
$$

IAZ047>049-059>061-072>074-084-171900-
   CENTRAL IOWA

CITY           SKY/WX    TMP DP  RH WIND       PRES   REMARKS
AMES             N/A     23  13  65 NW9       30.32F WCI  13
6HR MIN TEMP:  13; 6HR MAX TEMP:  23;

ANKENY *       SUNNY     23  14  68 NW7       30.32F WCI  15
CHARITON *     SUNNY     25  14  63 NW5       30.31F WCI  19
DES MOINES     PTSUNNY   24  13  62 NW8       30.32F WCI  15
6HR MIN TEMP:  15; 6HR MAX TEMP:  24;

GRINNELL*        N/A     23  18  80 NW9       30.31F WCI  13
KNOXVILLE *    CLOUDY    25  14  63 N8        30.30F WCI  16
MARSHALLTOWN     N/A     22  14  71 N8        30.30F WCI  12
6HR MIN TEMP:  13; 6HR MAX TEMP:  22;

PELLA *          N/A     25  17  70 N9        30.33F WCI  15
PERRY *          N/A     23  16  74 NW6       30.32F WCI  16
$$

IAZ004>006-015-016-023>025-035-036-171900-
   NORTH CENTRAL IOWA

CITY           SKY/WX    TMP DP  RH WIND       PRES   REMARKS
ALGONA *       MOSUNNY   19  14  79 N8        30.31F WCI   9
CLARION *      MOSUNNY   19  16  86 NW9       30.31F WCI   9
ESTHERVILLE      N/A     17  12  80 N9        30.30F WCI   6
6HR MIN TEMP:   9; 6HR MAX TEMP:  17; 6HR PCP: TRACE;

FORT DODGE *     N/A     19  12  73 N6        30.31F WCI  11
MASON CITY       N/A     18  11  74 NW12      30.31F WCI   5
6HR MIN TEMP:   9; 6HR MAX TEMP:  19;

FOREST CITY *  FLURRIES  19  12  73 NW9       30.30F WCI   9
IOWA FALLS *     N/A     22  15  75 NW10      30.31F WCI  11
$$

IAZ007>011-017>019-026>030-037>042-050>054-066-171900-
   NORTHEAST IOWA

CITY           SKY/WX    TMP DP  RH WIND       PRES   REMARKS
CEDAR RAPIDS     N/A     22  15  75 NW12      30.28F WCI  10
6HR MIN TEMP:  15; 6HR MAX TEMP:  22;

CHARLES CITY * PTSUNNY   19  14  79 NW10      30.30S WCI   8
CLINTON *      CLOUDY    25  16  68 W15       30.30F WCI  12
DECORAH *      CLOUDY    19  12  73 NW7G13    30.26F WCI  10
DUBUQUE        CLOUDY    21  15  78 NW13      30.25F WCI   9
6HR MIN TEMP:  19; 6HR MAX TEMP:  21;

MONTICELLO *   PTSUNNY   23  16  74 MISG      30.28F
OELWEIN *      PTSUNNY   21  12  68 NW13      30.29S WCI   9
WATERLOO         N/A     22  12  65 N12       30.31F WCI  10
6HR MIN TEMP:  12; 6HR MAX TEMP:  22;

$$

IAZ064-065-067-068-078-171900-
   EAST CENTRAL IOWA

CITY           SKY/WX    TMP DP  RH WIND       PRES   REMARKS
DAVENPORT        N/A     24  15  68 W13       30.29F WCI  12
6HR MIN TEMP:  20; 6HR MAX TEMP:  24;

IOWA CITY        N/A     24  14  65 NW9       30.32F WCI  14
6HR MIN TEMP:  19; 6HR MAX TEMP:  24;

MT. PLEASANT *   N/A     26  18  74 W9        30.31F WCI  16
MUSCATINE *    MOSUNNY   27  18  69 W10G17    30.32F WCI  17
QUAD CITIES    PTSUNNY   26  17  68 W12       30.29F WCI  16
6HR MIN TEMP:  22; 6HR MAX TEMP:  26;

$$

IAZ062-063-075>077-085>089-095>099-171900-
   SOUTHEAST IOWA

CITY           SKY/WX    TMP DP  RH WIND       PRES   REMARKS
BURLINGTON     PTSUNNY   25  18  74 NW8       30.30F WCI  16
6HR MIN TEMP:  19; 6HR MAX TEMP:  25;

FAIRFIELD *    PTSUNNY   25  18  74 NW9       30.31F WCI  15
FORT MADISON * MOSUNNY   25  19  80 NW6       30.32F WCI  18
KEOKUK *       CLOUDY    25  18  74 W6        30.32F WCI  18
OSKALOOSA *      N/A     24  17  74 NW9       30.32F WCI  15
CENTERVILLE *  SUNNY     27  18  69 NW3       30.32F
OTTUMWA          N/A     26  16  65 NW8       30.31F WCI  18
6HR MIN TEMP:  18; 6HR MAX TEMP:  26;

WASHINGTON *   SUNNY     25  19  80 NW8G15    30.31F WCI  16
$$

ABBREVIATIONS USED IN REMARKS
   TC - TEMPERATURES IN CELSIUS
  WCI - WIND CHILL INDEX
   HX - HEAT INDEX
  VSB - VISIBILITY
$$




USA.gov is the U.S. government's official web portal to all federal, state and local government web resources and services.